EW0802 Weather Reports


Display with metric or nautical units.
time (UTC)temp
F
wind
direction
speed
MPH
gust
MPH
rain 1hr
in
rain 24hr
in
rain mn
in
humidity
%
barometer
mb
20260901063043 85 185 0.0 3.0 0.00 0.00 0.00 55 1013.4
20260901061542 85 128 0.0 2.0 0.00 0.00 0.00 54 1013.4
20260901060039 85 184 0.0 0.0 0.00 0.00 0.00 52 1013.2
20260901054538 85 161 0.0 0.0 0.00 0.00 0.00 52 1013.1
20260901053038 85 152 0.0 2.0 0.00 0.00 0.00 51 1013.0
20260901051536 85 96 0.0 1.0 0.00 0.00 0.00 50 1012.7
20260901050031 85 109 0.0 1.0 0.00 0.00 0.00 49 1012.7
20260901044530 86 148 0.0 0.0 0.00 0.00 0.00 48 1012.6
20260901043030 86 166 0.0 1.0 0.00 0.00 0.00 48 1012.7
20260901041528 86 159 0.0 0.0 0.00 0.00 0.00 46 1012.6
20260901040030 87 160 0.0 1.0 0.00 0.00 0.00 45 1012.7
20260901034528 87 136 0.0 1.0 0.00 0.00 0.00 44 1012.7
20260901033043 88 124 0.0 0.0 0.00 0.00 0.00 43 1012.7
20260901031527 88 124 0.0 0.0 0.00 0.00 0.00 42 1012.7
20260901030027 89 124 0.0 0.0 0.00 0.00 0.00 41 1012.5
20260901024528 90 124 0.0 1.0 0.00 0.00 0.00 40 1012.3
20260901023029 90 136 0.0 1.0 0.00 0.00 0.00 40 1012.1
20260901021526 91 136 0.0 1.0 0.00 0.00 0.00 39 1012.0
20260901020024 92 127 0.0 0.0 0.00 0.00 0.00 39 1011.8
20260901014524 93 127 0.0 1.0 0.00 0.00 0.00 39 1011.7
20260901013024 93 102 0.0 1.0 0.00 0.00 0.00 38 1011.5
20260901011523 94 104 0.0 5.0 0.00 0.00 0.00 37 1011.4
20260901010023 94 134 0.0 5.0 0.00 0.00 0.00 36 1011.3
20260901004522 95 148 0.0 4.0 0.00 0.00 0.00 35 1011.3
20260901003022 96 207 1.0 4.0 0.00 0.00 0.00 34 1011.3
20260901001528 96 184 0.0 5.0 0.00 0.00 0.00 35 1011.3
20260901000022 97 32 0.0 8.0 0.00 0.00 0.00 34 1011.3
20260831234533 98 132 1.0 7.0 0.00 0.00 0.00 33 1011.4
20260831233020 99 96 1.0 8.0 0.00 0.00 0.00 32 1011.4
20260831231519 99 132 2.0 5.0 0.00 0.00 0.00 33 1011.3
20260831230019 99 99 1.0 4.0 0.00 0.00 0.00 33 1011.4
20260831224516 99 69 0.0 4.0 0.00 0.00 0.00 34 1011.4
20260831223017 100 125 1.0 7.0 0.00 0.00 0.00 33 1011.5
20260831221523 100 142 1.0 7.0 0.00 0.00 0.00 33 1011.5
20260831220021 99 194 2.0 6.0 0.00 0.00 0.00 33 1011.7
20260831214511 100 151 2.0 9.0 0.00 0.00 0.00 32 1012.0
20260831213027 100 165 2.0 6.0 0.00 0.00 0.00 33 1012.1
20260831211509 99 139 0.0 6.0 0.00 0.00 0.00 34 1012.1
20260831210008 100 140 0.0 10.0 0.00 0.00 0.00 32 1012.3
20260831204507 99 82 1.0 4.0 0.00 0.00 0.00 34 1012.5
20260831203006 99 65 2.0 8.0 0.00 0.00 0.00 33 1012.8
20260831201505 99 180 2.0 7.0 0.00 0.00 0.00 34 1012.9
20260831200005 100 173 3.0 11.0 0.00 0.00 0.00 33 1013.1
20260831194504 98 142 1.0 6.0 0.00 0.00 0.00 37 1013.2
20260831193004 97 199 1.0 8.0 0.00 0.00 0.00 38 1013.5
20260831191504 98 125 2.0 5.0 0.00 0.00 0.00 36 1013.6
20260831190002 99 153 2.0 8.0 0.00 0.00 0.00 37 1013.7
20260831184501 100 107 2.0 8.0 0.00 0.00 0.00 36 1013.9
20260831183059 100 94 2.0 9.0 0.00 0.00 0.00 37 1014.0
20260831181558 99 254 2.0 7.0 0.00 0.00 0.00 38 1014.3
20260831180056 97 207 3.0 11.0 0.00 0.00 0.00 39 1014.7
20260831174552 96 177 3.0 7.0 0.00 0.00 0.00 40 1014.9
20260831173047 97 221 2.0 7.0 0.00 0.00 0.00 41 1015.1
20260831171544 97 157 2.0 8.0 0.00 0.00 0.00 41 1015.3
20260831170041 97 175 1.0 6.0 0.00 0.00 0.00 41 1015.3
20260831164535 96 192 0.0 8.0 0.00 0.00 0.00 43 1015.4
20260831163033 95 217 1.0 7.0 0.00 0.00 0.00 45 1015.3
20260831161530 94 94 3.0 8.0 0.00 0.00 0.00 44 1015.4
20260831160038 93 126 1.0 6.0 0.00 0.00 0.00 47 1015.4
20260831154520 92 144 2.0 7.0 0.00 0.00 0.00 49 1015.4
20260831153033 90 165 1.0 5.0 0.00 0.00 0.00 52 1015.3
20260831151510 89 104 0.0 3.0 0.00 0.00 0.00 55 1015.3
20260831150005 87 219 2.0 5.0 0.00 0.00 0.00 59 1015.2
20260831144501 85 164 1.0 4.0 0.00 0.00 0.00 63 1015.1
20260831143100 84 161 0.0 4.0 0.00 0.00 0.00 68 1015.1
20260831141553 82 295 0.0 3.0 0.00 0.00 0.00 71 1015.1
20260831140048 81 148 0.0 4.0 0.00 0.00 0.00 73 1015.1
20260831134546 80 213 1.0 7.0 0.00 0.00 0.00 73 1015.0
20260831133044 80 127 2.0 8.0 0.00 0.00 0.00 74 1014.9
20260831131540 79 206 2.0 7.0 0.00 0.00 0.00 74 1014.6
20260831130043 79 174 2.0 6.0 0.00 0.00 0.00 75 1014.3
20260831124537 79 255 1.0 7.0 0.00 0.00 0.00 74 1014.1
20260831123043 79 166 0.0 5.0 0.00 0.00 0.00 74 1013.9
20260831121536 80 144 1.0 6.0 0.00 0.00 0.00 73 1013.7
20260831120050 80 164 0.0 6.0 0.00 0.00 0.00 71 1013.6
20260831114529 80 178 1.0 4.0 0.00 0.00 0.00 71 1013.5
20260831113025 80 146 0.0 5.0 0.00 0.00 0.00 70 1013.2
20260831111522 81 154 1.0 6.0 0.00 0.00 0.00 70 1013.1
20260831110020 81 145 1.0 7.0 0.00 0.00 0.00 69 1013.0
20260831104531 81 167 0.0 4.0 0.00 0.00 0.00 69 1013.1
20260831103017 81 175 0.0 2.0 0.00 0.00 0.00 68 1013.0
20260831101522 81 202 0.0 5.0 0.00 0.00 0.00 67 1013.0
20260831100023 82 112 0.0 5.0 0.00 0.00 0.00 67 1012.9
20260831094513 82 134 1.0 5.0 0.00 0.00 0.00 66 1012.9
20260831093012 82 167 0.0 2.0 0.00 0.00 0.00 65 1013.0
20260831091509 82 171 0.0 3.0 0.00 0.00 0.00 64 1012.9
20260831090008 82 142 1.0 7.0 0.00 0.00 0.00 63 1012.7
20260831084507 83 113 0.0 4.0 0.00 0.00 0.00 62 1012.7
20260831083006 83 171 1.0 3.0 0.00 0.00 0.00 61 1012.6
20260831081503 83 304 0.0 3.0 0.00 0.00 0.00 59 1012.6
20260831080000 84 200 0.0 5.0 0.00 0.00 0.00 58 1012.6
20260831074558 84 171 1.0 5.0 0.00 0.00 0.00 56 1012.6
20260831073100 85 209 2.0 6.0 0.00 0.00 0.00 55 1012.5
20260831071556 85 218 2.0 8.0 0.00 0.00 0.00 53 1012.5
20260831070110 86 240 3.0 8.0 0.00 0.00 0.00 52 1012.5
20260831064551 86 184 1.0 10.0 0.00 0.00 0.00 51 1012.5